Theta_e
337 340 341 342 342 342 340 336 337 337 337 336 336 336 335 333 332 333 333 353 351 352 355 357 357 358 358 357 355 355 356 355 354 352 351 350 350 350 351 350 350 350 349
340 339 341 342 343 342 341 339 340 338 339 340 339 342 342 342 343 340 338 337 351 350 352 356 358 359 360 360 358 356 355 355 355 353 351 350 350 350 351 351 350 350 349
347 349 347 346 345 347 346 344 344 348 349 348 344 343 343 342 344 344 343 342 342 350 351 354 356 358 359 360 360 359 356 354 354 353 351 350 349 349 350 351 351 350 349
351 351 351 349 349 347 348 344 342 340 340 341 341 342 344 343 342 338 335 339 342 342 348 352 353 355 357 359 360 360 356 354 352 351 351 351 350 349 349 350 350 350 349
353 351 351 349 348 349 349 349 346 342 341 344 346 343 340 340 341 342 333 332 339 342 340 348 351 351 353 356 358 359 358 353 350 351 351 351 351 350 349 349 349 349 348
354 352 349 347 350 347 347 348 343 347 346 341 344 342 338 338 340 333 335 341 341 331 330 337 343 345 349 353 356 358 358 357 353 352 350 348 349 350 349 349 349 348 348
351 350 349 349 349 346 344 347 345 340 340 340 336 334 335 337 334 338 339 338 333 333 328 324 334 344 346 350 350 353 357 356 355 354 349 346 347 348 349 349 348 347 347
349 340 337 346 346 344 342 343 344 340 341 340 333 330 325 326 329 333 334 335 330 331 328 331 338 342 345 346 347 349 354 356 356 354 350 347 346 348 349 349 348 348 347
342 337 341 346 342 342 331 333 340 340 336 337 335 326 319 318 321 327 329 332 329 329 333 336 336 338 344 347 346 345 347 348 354 354 353 350 349 350 347 347 348 347 347
340 341 344 348 344 343 338 333 341 342 337 332 330 333 329 326 323 319 323 327 329 328 329 331 333 331 338 343 345 345 341 340 337 343 349 350 350 351 350 349 348 347 347
331 328 342 348 347 341 340 338 338 337 337 331 329 325 322 322 322 321 313 314 321 322 325 329 326 330 329 334 338 338 338 331 332 334 340 346 348 348 348 348 349 348 346
344 339 344 344 343 340 335 332 333 331 330 330 329 325 321 316 313 313 311 312 311 315 319 320 320 327 324 327 341 342 332 330 328 331 334 338 342 345 346 346 349 350 350
331 335 334 333 333 333 333 333 334 331 330 328 327 325 323 321 317 314 312 309 309 311 314 318 321 322 325 328 331 337 336 331 329 327 328 331 336 338 341 342 344 346 348
325 326 329 332 332 333 332 329 328 331 328 325 323 323 323 320 318 315 311 308 307 307 310 313 315 317 321 324 333 337 333 330 328 326 325 325 328 331 332 334 335 336 339
327 325 325 325 327 327 330 328 329 326 326 323 324 324 323 322 321 318 316 313 308 304 303 307 310 315 317 323 330 331 331 333 332 327 325 324 324 325 327 328 329 330 332
320 322 324 324 325 326 328 330 331 330 329 328 328 326 325 325 323 319 317 316 312 309 308 309 309 312 317 326 328 327 331 330 328 326 325 324 323 322 323 324 324 326 329
317 317 318 317 318 319 320 321 322 325 326 324 323 323 322 322 320 320 318 317 315 312 311 311 311 314 315 316 318 320 323 328 329 325 325 323 322 321 321 320 321 323 325
315 316 316 315 315 315 314 314 316 319 321 321 323 322 321 325 321 319 319 318 317 313 311 312 310 311 313 314 315 317 324 329 324 325 322 321 320 318 318 318 318 319 320
312 312 313 312 313 313 312 311 311 312 311 312 316 318 320 320 319 320 320 319 318 320 317 315 314 314 314 314 313 314 316 318 323 326 322 321 319 319 318 317 317 316 316
312 311 310 311 311 311 311 310 310 308 307 309 309 310 310 310 311 310 314 316 318 317 317 316 315 312 310 310 309 309 310 316 318 325 324 323 321 322 319 317 317 317 314
310 309 309 308 308 309 310 303 303 303 303 303 305 307 308 311 313 311 309 307 310 312 314 314 313 313 313 308 307 310 312 315 314 316 316 319 324 326 323 317 320 318 314
306 306 306 306 305 308 300 300 299 297 299 300 300 303 304 307 307 307 307 308 307 306 305 308 311 310 310 307 309 311 309 310 306 313 315 315 320 322 324 324 318 315 312
299 299 299 301 301 300 301 297 298 296 295 296 297 298 300 303 304 304 304 305 305 305 306 306 303 307 309 308 308 308 308 308 307 311 315 312 316 318 323 325 312 311 309
297 297 297 298 297 298 298 296 296 296 296 297 298 299 300 300 300 300 300 300 301 303 304 307 306 306 307 310 311 312 309 307 309 312 316 311 315 318 323 317 311 308 306
295 293 293 293 294 294 295 295 295 295 296 296 297 299 299 298 297 296 298 297 297 298 301 302 302 301 300 301 304 311 307 309 306 306 313 312 313 315 317 318 315 310 309
291 293 292 293 294 293 294 293 294 294 293 294 297 298 298 298 296 295 296 296 295 297 299 300 302 302 302 306 304 308 308 306 307 303 310 312 312 315 315 316 315 312 309
Wind_Speed
5 4 5 5 5 4 6 5 6 6 8 8 8 7 6 6 6 3 2 11 12 12 12 11 13 13 13 12 12 13 13 14 14 13 13 14 14 13 13 13 12 12 11
6 5 5 5 5 6 5 5 5 5 5 6 5 7 7 5 7 6 4 5 13 12 12 13 14 13 13 12 12 12 13 14 14 14 14 14 14 14 15 14 14 14 13
7 6 5 5 5 5 7 6 7 5 4 2 6 6 5 6 5 4 4 4 5 12 14 15 13 12 13 14 13 13 13 14 14 13 13 14 14 15 16 16 15 15 14
8 6 5 4 5 4 3 2 4 3 3 4 3 5 4 2 4 2 5 3 4 5 10 14 16 14 14 14 14 13 13 13 14 14 13 14 14 14 14 16 16 16 15
11 6 5 5 4 2 2 2 1 2 3 1 3 4 2 4 6 3 6 6 3 4 3 7 15 15 15 15 14 14 14 12 12 13 14 13 14 14 15 15 16 16 15
11 7 2 2 2 1 3 3 2 2 3 3 2 2 4 5 4 4 6 5 6 2 4 6 3 6 15 14 13 15 15 14 13 16 15 15 15 16 16 16 16 16 16
7 6 5 2 4 5 6 5 3 4 4 2 1 3 4 4 2 3 4 3 4 1 7 4 4 6 6 14 14 14 16 15 14 15 16 16 16 18 19 18 17 17 17
10 6 5 6 5 1 4 5 5 3 4 5 4 2 3 5 3 3 3 4 4 2 5 7 7 10 6 5 9 14 14 14 13 15 15 15 15 18 18 19 19 19 19
9 8 7 5 4 4 4 9 6 7 4 3 4 5 0 4 1 2 2 3 5 4 5 7 7 4 4 4 4 4 8 13 16 13 12 11 15 16 18 18 18 19 20
6 4 7 10 9 5 8 7 13 5 4 5 1 3 3 4 4 3 3 2 3 4 5 5 5 5 3 2 3 7 26 7 9 15 15 10 13 16 17 18 18 19 20
5 6 20 12 8 5 4 4 6 5 4 2 3 1 1 1 2 3 3 4 3 3 3 2 3 4 5 3 4 6 13 12 11 8 14 12 11 12 13 15 15 17 19
6 12 6 6 5 2 1 1 4 2 2 3 2 2 2 1 2 1 2 4 4 5 3 4 4 5 4 2 5 7 6 8 11 14 15 15 11 10 9 11 12 15 19
4 5 2 4 1 1 2 3 2 3 5 2 3 3 2 3 3 3 3 3 4 4 4 3 4 3 4 2 1 3 3 5 5 8 14 12 11 10 11 11 12 14 15
3 7 5 5 3 4 6 5 3 3 3 4 6 5 4 5 4 4 4 3 4 2 3 6 3 3 3 4 6 5 1 4 3 3 6 9 11 12 12 11 12 13 13
4 7 7 6 6 6 6 4 4 4 5 6 7 7 6 5 5 5 4 4 5 3 4 5 4 5 4 3 4 4 4 6 6 7 10 10 13 12 13 14 12 13 13
4 5 6 6 7 7 6 6 4 5 5 5 5 6 6 5 6 5 5 5 4 6 8 5 5 5 4 3 5 4 6 10 11 11 14 16 14 13 14 14 13 13 11
8 7 6 5 5 7 7 7 7 7 7 7 6 7 8 7 5 5 4 4 6 4 10 6 4 3 3 4 5 5 4 5 5 12 15 16 15 17 15 16 15 14 12
7 7 7 7 7 7 6 6 7 7 7 8 9 7 9 9 9 6 5 8 7 5 5 14 4 3 6 6 5 5 5 4 5 10 12 15 16 15 17 16 15 15 13
7 7 7 7 7 7 8 7 7 7 7 6 6 7 9 8 10 9 11 10 7 7 7 9 10 5 6 3 4 4 5 6 6 11 11 12 12 15 16 17 17 15 14
7 7 7 7 7 7 8 8 8 6 5 5 5 5 5 5 5 6 6 7 9 8 9 9 9 6 4 6 4 4 4 3 4 2 5 6 12 15 14 17 17 16 14
8 7 7 7 7 6 6 5 6 6 6 6 5 7 8 8 11 8 5 5 6 7 7 9 10 10 8 3 4 4 4 3 3 4 2 2 4 8 7 9 12 12 13
8 8 9 8 8 7 5 5 5 4 5 5 7 10 8 12 13 13 13 6 5 6 7 6 9 12 12 5 3 4 4 3 3 1 3 9 1 8 9 6 11 11 12
7 7 7 7 8 7 11 7 13 6 8 9 10 11 11 11 14 12 17 18 17 11 9 5 5 7 7 6 5 4 5 4 4 3 1 9 2 9 9 5 5 11 12
9 10 11 11 9 9 11 12 16 13 14 15 14 13 12 12 11 12 13 13 13 13 13 9 8 5 6 7 7 10 8 5 1 2 3 8 2 9 3 2 6 5 8
10 9 9 13 15 17 21 20 17 13 12 13 13 12 11 11 13 12 10 13 15 15 14 16 14 12 13 13 13 4 4 4 3 4 4 4 5 6 2 0 3 8 5
12 13 17 13 16 15 20 20 16 9 12 11 11 12 15 12 13 13 13 13 13 11 10 12 11 11 11 11 14 10 5 4 4 1 5 5 2 3 3 2 2 5 4
Wind_Direction
218 218 184 186 195 197 208 215 216 211 217 222 236 226 228 239 257 273 193 206 212 219 227 226 221 219 225 229 238 237 233 235 218 217 215 212 209 207 216 214 210 214 211
205 206 207 193 196 198 209 208 227 221 229 223 233 244 238 249 249 235 229 219 219 221 227 235 236 231 229 229 231 234 238 234 232 218 218 221 213 208 214 218 215 213 215
204 193 206 216 220 198 198 208 220 211 191 203 235 240 225 216 240 308 282 250 233 224 223 231 239 242 238 236 232 231 228 234 237 232 219 223 224 215 209 217 216 217 216
199 195 189 205 230 249 240 191 210 223 219 230 280 274 293 44 166 201 286 263 248 238 229 235 232 231 235 241 243 236 231 222 225 232 226 223 227 228 223 219 219 216 215
196 187 195 203 209 217 245 192 272 202 210 219 244 253 182 205 235 231 259 266 274 319 312 256 231 231 229 230 238 244 240 232 224 233 228 222 224 230 231 225 223 221 217
191 191 184 210 193 331 300 287 117 216 235 229 224 280 273 263 252 215 244 294 77 56 334 263 283 265 235 230 229 242 248 241 232 219 227 219 215 219 227 232 225 223 221
130 138 199 196 200 208 231 232 122 228 261 249 18 320 291 268 227 236 234 122 199 311 271 312 299 279 244 220 225 234 244 249 247 233 222 220 215 215 217 219 224 222 221
163 179 174 210 201 98 320 306 235 208 218 200 171 129 285 319 347 157 111 144 203 308 292 284 282 266 238 207 214 229 240 249 247 243 232 222 215 220 222 219 219 218 219
155 190 203 194 184 168 190 232 252 203 221 239 165 156 120 225 324 247 205 176 178 216 253 253 264 342 311 294 0 352 310 302 293 265 243 216 216 223 231 224 219 225 222
60 55 300 225 202 197 199 241 252 216 164 211 282 209 224 163 195 317 319 277 232 268 279 295 296 325 341 266 166 185 242 306 301 313 284 243 228 217 225 225 222 223 228
150 92 242 222 212 214 186 234 264 215 189 173 206 273 360 358 175 137 249 307 342 302 282 270 277 276 302 307 267 222 190 224 244 257 284 265 252 245 235 230 227 228 231
173 218 238 232 231 158 151 306 252 320 235 183 156 142 147 192 280 148 154 246 267 284 265 282 285 266 277 317 300 280 228 259 299 349 311 277 260 254 244 243 240 244 237
348 318 103 76 312 279 207 186 180 177 240 218 229 250 210 216 194 215 163 230 213 277 296 274 277 281 263 124 330 43 68 252 261 258 259 257 249 246 240 239 246 255 254
2 13 12 0 286 248 216 199 200 198 200 211 228 224 225 232 210 200 194 180 293 258 271 253 273 284 264 227 192 161 179 174 182 274 269 250 252 244 245 244 239 249 253
2 4 1 358 336 354 323 281 231 222 215 222 225 226 220 229 226 223 211 180 182 258 250 268 250 240 264 235 198 191 219 252 245 251 270 270 258 248 244 240 236 239 242
14 355 340 332 335 320 315 310 291 261 244 244 238 234 236 225 227 222 223 230 195 211 269 209 249 236 256 237 231 207 212 224 233 238 257 269 265 251 248 246 242 246 248
344 347 340 347 319 308 307 305 292 282 269 258 260 246 251 250 237 233 235 233 233 204 261 262 225 244 244 246 263 264 247 230 249 250 256 263 261 267 250 239 242 237 231
321 319 324 319 314 311 307 305 302 298 286 279 267 247 246 256 251 242 227 243 242 228 223 270 235 254 259 253 243 261 256 236 245 255 256 263 270 256 262 252 231 233 221
289 284 280 284 289 291 295 297 289 293 292 292 297 298 291 274 259 252 250 250 236 245 245 257 268 250 257 249 247 239 230 246 252 258 271 278 289 285 265 254 241 224 212
272 277 267 264 264 268 276 279 281 307 346 352 346 334 326 320 327 360 334 311 288 267 254 258 256 241 219 249 215 246 279 244 253 290 302 297 296 293 280 255 243 226 206
298 295 300 300 298 297 297 25 15 358 336 320 312 306 300 311 322 308 302 294 293 292 281 265 266 263 257 246 215 213 200 215 267 220 276 299 339 323 299 258 257 228 205
351 348 347 348 346 339 76 65 24 337 314 313 304 297 290 294 289 290 296 267 239 289 278 269 263 250 250 225 230 192 186 182 254 283 24 310 352 303 294 263 242 227 205
340 331 323 320 312 304 303 342 333 320 302 290 282 279 280 277 281 281 282 282 278 244 217 238 256 266 254 219 205 201 196 180 206 241 94 294 266 280 276 259 303 234 195
323 317 310 303 299 294 296 311 305 298 288 284 279 275 272 277 276 276 278 279 279 279 275 251 226 242 277 302 260 250 221 199 213 238 151 274 254 272 266 297 20 244 180
320 316 306 299 294 292 293 292 294 289 280 278 276 266 262 263 264 253 267 277 280 278 277 275 257 250 253 267 270 221 202 173 226 230 194 246 255 263 255 286 79 84 120
297 300 295 294 290 286 289 290 287 282 282 284 282 277 268 265 274 266 267 271 270 272 268 267 270 272 262 246 226 231 210 179 181 265 220 203 213 201 228 139 126 89 87